GFSSE_sfc_rhum_159.txt.gz
RH
86 79 78 74 75 75 74 76 77 76 77 76 77 76 75 76 76 79 78 76 75 77 77 78 75 73 72 73 75 77 75 75 77 78 77 76 75 76 78 74 75 71 77
82 77 79 75 75 75 75 77 77 75 74 74 73 76 75 75 76 77 78 74 75 76 74 72 72 73 74 76 75 76 77 77 76 74 74 75 73 75 77 72 74 74 77
85 71 72 78 74 74 74 75 75 75 76 77 77 76 74 74 74 75 75 75 73 75 72 75 75 75 74 74 74 74 73 76 76 72 72 74 73 74 76 74 77 77 76
74 75 74 81 77 74 73 72 74 76 78 77 76 74 72 73 74 73 74 76 74 73 72 74 73 72 71 71 71 72 73 77 76 73 70 62 57 68 69 72 72 74 75
75 86 78 78 77 74 74 74 75 76 76 74 76 74 74 75 74 72 72 72 71 71 72 71 72 72 72 71 71 72 71 70 70 70 70 72 77 71 74 77 78 74 74
75 72 74 76 74 74 74 73 73 75 75 72 71 72 71 72 74 71 74 73 75 74 73 73 72 72 69 68 70 70 70 71 70 74 64 73 76 75 75 73 72 69 69
74 73 74 73 75 77 73 73 75 76 76 77 76 75 75 73 74 74 74 73 73 72 71 71 70 65 63 67 70 73 73 70 64 70 72 70 77 77 72 71 72 68 68
63 68 70 70 72 77 75 76 77 78 77 75 74 73 70 69 73 74 72 71 70 69 70 70 67 63 64 69 72 77 75 70 60 70 76 74 82 77 71 76 75 74 74
63 69 78 79 72 70 74 75 76 77 76 74 72 71 71 72 70 72 74 71 69 69 69 69 67 66 69 71 74 77 77 75 75 79 67 77 82 75 73 76 79 81 72
69 74 82 86 86 88 86 76 74 73 72 72 70 70 73 74 71 71 76 74 69 67 66 68 68 72 74 75 76 77 76 75 73 73 80 76 83 75 74 74 76 74 72
66 73 81 83 84 87 89 74 74 71 68 68 74 74 79 91 87 70 73 70 67 66 67 69 72 75 75 76 77 76 73 90 87 85 87 76 84 74 71 72 73 77 74
72 74 72 79 72 80 74 89 87 76 80 83 87 86 91 88 86 68 74 69 67 68 69 73 75 74 70 68 66 75 88 90 88 87 92 82 84 70 68 70 74 79 76
67 64 80 73 81 83 88 85 93 94 88 89 91 92 86 80 89 87 86 79 86 77 79 68 73 72 68 75 63 71 84 85 87 87 81 81 81 69 64 67 73 76 74
58 66 66 66 79 85 83 79 80 94 96 95 86 84 89 91 85 73 86 89 87 88 80 77 75 68 68 60 58 66 58 86 89 91 84 82 78 72 64 66 72 76 74
57 57 62 68 87 81 91 84 85 93 93 91 82 78 81 82 90 90 93 95 93 95 94 82 87 78 65 44 59 49 60 70 80 72 76 79 77 73 70 70 73 74 72
56 53 51 64 84 86 90 90 83 88 87 90 78 66 84 96 91 95 95 93 95 87 95 77 66 60 59 67 65 51 54 69 64 79 91 95 76 78 78 74 72 73 75
63 52 63 70 76 84 88 80 78 76 68 72 66 65 79 91 93 90 96 97 96 88 89 70 66 68 87 72 56 82 84 79 77 73 84 87 82 81 79 79 82 81 77
60 70 67 55 67 74 70 75 77 77 80 70 67 79 69 84 75 93 94 96 94 92 89 79 81 74 81 81 62 89 92 95 82 79 69 84 88 71 80 83 82 82 78
57 63 57 48 61 67 74 84 84 76 79 68 70 72 62 75 88 87 90 94 86 80 80 72 77 67 86 73 63 88 91 90 89 73 73 70 84 81 87 83 81 78 74
58 60 60 52 63 72 87 81 82 83 83 79 64 67 74 75 72 79 90 87 70 76 84 81 85 80 85 66 49 82 89 86 93 87 87 63 66 75 88 86 92 77 78
52 62 62 68 74 74 90 91 89 88 83 70 64 65 74 73 72 73 85 79 71 80 78 72 84 81 77 72 79 82 82 79 87 79 74 79 67 72 91 96 96 92 86
55 63 74 63 76 78 72 81 78 80 78 77 76 76 69 69 76 71 80 84 82 80 77 75 84 87 82 75 69 84 91 82 71 76 83 87 67 87 88 89 89 90 93
56 61 69 74 71 78 77 79 76 83 83 90 88 78 73 70 72 74 72 82 77 90 89 79 84 86 87 78 72 77 92 84 77 82 72 80 74 91 93 90 87 86 92
71 57 71 72 76 75 82 82 71 71 92 94 77 84 79 74 73 73 73 76 77 86 90 85 74 84 90 88 82 69 73 74 74 69 70 77 74 62 84 90 72 81 90
65 67 67 74 73 73 84 85 81 91 92 93 95 87 84 80 72 72 78 73 79 86 89 81 83 88 85 90 88 86 80 75 82 86 72 76 84 70 90 86 89 92 94
71 66 64 81 76 80 82 88 86 88 90 94 90 89 86 85 81 74 72 76 82 88 84 87 88 79 82 83 90 91 90 87 80 81 79 78 79 66 81 94 85 95 96

GFSSE_sfc_rhum_162.txt.gz
RH
92 86 80 75 75 76 76 77 77 77 77 78 77 78 77 77 77 79 77 76 77 76 76 75 74 75 76 75 74 72 72 72 72 74 76 74 74 76 77 74 74 72 77
85 83 81 77 75 76 77 77 77 77 77 77 77 76 76 76 77 77 75 74 76 76 76 73 73 72 74 75 75 72 72 76 76 74 74 75 73 74 76 74 74 74 75
82 77 76 80 76 76 77 76 74 73 74 75 77 75 76 76 76 75 73 75 75 75 72 73 74 74 74 74 74 74 76 75 74 73 74 84 78 73 75 74 76 77 77
81 82 80 81 78 75 75 76 76 74 77 77 74 72 73 76 76 74 73 73 75 73 75 75 74 73 74 74 73 75 76 77 73 69 73 70 64 72 72 74 76 76 76
84 87 81 78 78 73 75 75 75 76 76 76 74 74 74 74 73 73 75 74 73 75 74 72 70 70 70 70 70 69 69 70 71 71 76 83 77 66 70 73 72 72 73
88 82 78 76 75 74 75 75 76 75 74 75 73 73 74 75 71 74 72 70 71 71 72 72 72 71 71 70 70 69 69 69 73 82 83 75 86 73 74 75 74 71 73
89 77 84 78 77 74 74 74 75 72 71 72 73 72 72 74 74 74 74 73 75 74 73 72 71 67 66 67 69 70 71 66 74 80 79 85 77 81 76 74 69 67 68
79 78 74 77 76 73 73 74 75 73 75 76 75 73 72 74 74 75 74 74 72 70 71 71 69 65 65 68 70 74 72 70 70 83 83 79 83 80 74 72 75 72 73
73 78 82 82 77 73 74 75 78 75 75 73 71 68 71 71 74 73 72 71 70 70 70 70 69 67 66 69 72 75 75 74 82 89 74 86 84 76 72 74 76 76 76
78 80 85 88 87 92 89 76 79 76 73 71 71 71 73 72 74 73 77 74 70 69 68 68 68 70 72 73 73 75 74 72 76 80 89 89 82 74 73 76 77 76 72
78 87 84 86 90 92 94 86 75 72 71 70 73 74 80 93 90 77 75 71 68 67 66 69 70 72 73 72 73 80 76 88 64 86 84 86 80 76 74 76 78 77 74
84 84 77 80 85 89 86 91 90 79 86 87 83 87 93 90 91 77 76 73 68 67 68 70 72 71 70 75 71 73 88 77 74 77 91 82 77 76 73 74 77 78 78
79 71 75 75 80 88 87 85 94 93 88 90 91 93 90 84 90 91 93 88 89 77 80 76 74 76 69 75 90 90 84 89 90 89 81 78 76 73 71 71 74 77 77
73 72 69 73 83 88 86 85 87 94 95 97 94 90 93 91 91 87 90 91 88 89 88 87 81 76 77 74 87 91 73 87 94 94 88 82 77 74 69 70 73 78 78
70 64 62 66 84 86 90 79 82 92 95 94 90 88 91 92 93 93 92 92 92 91 92 91 94 90 86 78 78 74 77 82 90 94 96 79 83 77 72 73 75 76 72
68 68 59 66 77 79 91 90 84 88 85 91 88 84 91 96 96 95 94 83 94 93 94 93 87 89 89 91 85 82 84 87 84 84 92 95 80 78 77 74 74 73 75
58 58 62 66 78 87 90 90 90 90 76 84 83 83 85 92 92 92 88 92 94 92 92 89 90 89 79 84 85 91 79 74 82 84 86 93 88 78 82 77 82 82 78
54 58 54 47 64 84 86 83 85 85 86 80 77 83 87 86 81 89 90 91 91 92 96 96 85 78 83 90 86 91 91 78 77 90 89 86 94 75 85 85 84 83 78
62 57 58 71 74 79 81 85 91 79 84 82 78 84 80 77 83 86 87 87 94 90 94 83 87 75 86 84 74 90 93 92 84 73 76 82 86 86 89 86 84 81 75
62 73 74 69 70 80 86 90 89 80 87 89 79 77 72 77 82 78 82 86 92 86 88 83 86 83 86 70 59 78 90 92 90 84 86 70 84 84 90 90 94 85 79
57 66 67 69 74 87 90 82 82 79 82 74 82 71 78 87 82 86 89 87 83 83 81 78 87 87 81 82 81 78 80 76 85 90 83 92 89 88 90 95 95 91 87
59 65 64 65 78 82 84 85 82 84 83 76 81 77 77 75 81 78 82 86 87 82 84 78 87 89 88 84 74 87 88 75 82 85 86 86 77 87 84 87 88 89 91
59 65 65 64 74 80 81 84 88 88 87 91 87 77 76 74 78 78 82 86 83 92 92 86 88 88 89 84 83 76 86 77 85 91 82 88 85 90 92 91 88 91 93
64 64 71 69 75 79 80 83 84 83 90 93 79 82 77 79 77 77 78 83 81 86 88 91 80 89 94 91 90 82 79 73 74 68 88 88 84 77 92 89 82 89 94
72 64 76 79 76 74 86 87 84 90 92 93 95 91 83 87 79 77 79 83 82 90 89 92 88 93 94 93 90 92 86 85 89 92 76 82 90 83 95 88 85 93 94
65 67 76 84 84 80 87 90 86 87 91 93 90 92 92 93 84 84 81 82 81 92 92 92 90 88 90 91 96 93 93 92 84 83 85 85 83 82 94 95 93 98 98

GFSSE_sfc_rhum_165.txt.gz
RH
95 91 81 77 76 76 77 76 76 77 78 79 76 77 77 76 76 77 78 78 78 78 78 78 76 74 75 75 74 72 73 74 73 76 75 74 75 77 76 76 76 74 75
90 88 80 77 76 76 77 78 77 77 77 77 78 76 76 77 78 77 77 76 75 76 76 74 74 75 75 74 71 72 73 74 74 72 74 72 71 72 74 74 73 76 76
88 87 83 81 76 76 77 77 77 76 76 76 76 76 76 76 75 74 75 76 75 74 72 73 74 73 74 73 72 72 74 76 74 73 73 86 79 71 72 71 74 76 75
85 88 85 82 79 77 76 76 74 74 75 76 76 76 75 75 74 73 74 75 76 73 76 76 75 74 73 72 72 73 75 73 73 71 81 76 71 75 75 72 74 75 78
88 89 88 78 77 76 76 76 75 76 77 74 73 74 75 75 74 73 73 74 73 76 75 74 72 72 72 70 72 75 75 74 73 72 74 84 81 69 67 70 73 75 73
86 88 82 79 75 75 76 76 75 74 75 74 74 75 74 73 73 74 74 73 75 74 72 72 73 74 73 73 72 69 70 72 72 82 87 85 84 82 72 72 73 72 68
92 89 85 78 75 75 74 74 74 75 75 74 73 74 75 72 73 72 71 71 71 72 74 73 73 70 68 67 68 64 65 68 76 86 83 90 80 77 70 74 72 70 69
89 85 92 82 79 74 72 74 73 72 73 74 73 73 74 74 75 73 74 75 74 72 71 71 70 66 64 66 69 66 67 71 69 84 84 90 84 76 69 73 70 70 69
80 88 92 91 85 75 71 74 73 74 75 75 73 72 74 76 76 74 73 72 70 69 69 69 69 68 66 67 69 71 72 73 81 88 78 89 80 75 66 72 75 73 75
84 83 90 92 92 95 88 76 78 77 74 70 69 71 71 74 74 73 77 73 69 68 67 67 68 70 71 70 69 75 75 68 74 84 84 89 79 75 69 70 74 75 75
84 89 89 89 92 94 96 88 74 77 71 71 74 74 83 95 93 83 76 71 68 66 66 68 70 72 73 74 73 72 71 84 70 85 90 84 76 71 72 68 70 72 75
94 91 87 88 90 93 92 94 95 92 90 83 83 87 95 92 91 81 78 73 69 67 68 70 71 71 72 87 76 73 90 80 79 80 93 80 78 72 69 71 72 70 73
90 83 80 82 85 93 96 91 96 95 89 84 85 93 91 85 90 92 94 90 88 80 84 81 80 87 84 80 89 91 81 88 94 94 88 79 78 72 71 72 71 73 74
85 75 71 76 80 90 91 85 84 93 96 94 92 89 94 92 92 93 93 92 92 92 90 91 84 85 86 90 91 90 83 88 95 94 89 71 78 73 72 70 71 74 78
82 69 68 72 86 89 89 84 79 94 96 94 89 91 93 94 96 94 94 92 92 92 93 87 89 92 87 77 81 77 85 86 86 92 96 75 77 77 74 71 75 77 77
76 72 63 69 77 80 89 88 82 88 84 89 86 85 89 95 96 93 93 85 92 93 92 94 85 90 91 84 79 81 81 87 86 89 92 92 79 81 77 75 75 74 71
71 68 71 66 70 80 87 88 86 87 76 83 82 86 89 94 94 92 89 90 91 91 92 90 94 87 85 84 85 89 89 80 84 81 85 92 89 83 78 76 77 79 78
64 68 66 54 62 79 84 91 87 87 92 88 85 84 82 90 86 90 88 91 90 93 95 95 86 80 86 92 86 90 93 88 84 87 91 86 92 81 84 82 82 81 75
59 63 65 62 66 79 88 92 93 91 87 89 87 86 82 84 82 86 89 89 90 92 96 85 85 74 85 85 69 85 95 91 85 75 85 88 88 87 94 84 86 84 77
55 66 64 63 76 85 93 94 93 85 87 92 86 87 78 74 75 85 81 88 90 83 89 88 89 88 91 82 66 80 92 91 90 89 87 75 86 85 93 88 96 90 81
65 71 71 79 81 90 94 89 85 82 80 81 83 79 75 81 78 88 92 92 84 86 87 81 91 88 84 85 82 83 79 82 88 88 94 93 90 90 90 93 95 92 87
65 72 76 79 80 87 89 86 79 85 84 83 86 84 80 78 81 82 88 90 90 84 86 85 90 93 91 90 83 85 88 70 79 86 91 88 89 88 88 87 94 89 94
63 69 72 73 77 86 88 89 92 91 88 92 91 83 82 80 81 84 84 88 87 92 94 91 91 89 91 89 91 87 85 85 89 91 83 87 84 90 94 91 92 92 92
64 64 68 72 76 81 87 87 87 82 90 93 86 87 78 79 81 80 83 86 86 90 89 92 85 92 95 91 93 94 89 88 78 80 91 90 86 81 93 96 89 90 95
66 62 66 77 74 73 85 86 85 90 94 94 94 88 84 82 86 81 84 90 88 89 90 91 91 92 95 93 93 95 90 94 92 92 78 85 92 90 95 90 89 90 94
66 74 74 82 87 84 86 90 87 85 91 93 93 92 91 90 89 86 84 89 87 91 92 94 92 91 93 93 96 95 94 92 88 86 87 88 89 96 96 97 92 98 98

GFSSE_sfc_rhum_168.txt.gz
RH
95 90 81 77 76 75 75 76 76 77 76 77 77 75 74 74 76 77 79 78 77 76 76 74 73 75 75 75 75 73 75 72 76 76 74 75 77 78 78 77 76 69 76
92 90 82 77 75 76 76 76 77 78 78 76 77 75 74 75 75 77 77 76 77 74 75 77 76 74 75 73 73 74 73 74 74 74 74 72 71 76 75 74 76 73 74
89 88 82 81 76 77 77 77 77 76 76 77 76 76 76 76 76 76 75 75 75 73 72 72 73 75 74 73 72 73 75 76 73 74 79 78 72 72 73 74 75 75 78
86 88 85 84 78 77 77 77 76 75 76 76 76 76 76 74 74 74 75 75 73 72 73 74 73 74 72 72 74 75 74 74 71 72 75 71 70 74 69 71 76 76 74
88 89 87 78 78 77 77 75 75 74 75 75 76 75 74 74 74 74 76 76 74 76 75 75 74 74 72 73 73 73 71 72 71 69 70 79 72 69 69 65 72 74 76
88 86 82 77 77 76 75 75 77 77 74 73 73 75 75 74 73 73 74 72 77 75 72 71 71 71 71 69 68 67 68 69 69 77 86 78 77 68 67 66 70 71 67
91 88 84 78 76 77 78 79 75 74 74 74 76 77 74 73 75 73 72 74 72 72 73 72 72 68 68 68 68 67 68 66 74 82 86 84 76 72 68 68 64 68 67
91 91 91 91 87 78 76 76 75 75 74 73 74 76 74 75 73 71 70 70 72 73 72 73 70 67 66 68 70 68 68 68 64 76 79 84 84 78 67 82 70 67 65
85 92 95 97 94 87 78 76 72 73 73 74 75 77 75 74 74 74 74 73 70 71 70 70 69 68 67 68 70 71 70 69 74 84 76 84 83 77 67 67 66 69 73
86 90 95 98 99 99 94 78 74 75 74 73 71 72 77 76 74 73 77 74 71 69 67 67 68 71 72 72 72 71 72 70 68 76 80 81 79 72 69 67 64 69 69
85 89 92 95 96 97 95 80 71 69 79 70 75 79 90 94 90 82 76 72 70 67 66 68 70 73 73 74 74 70 67 78 67 76 83 82 78 71 69 62 64 70 70
95 92 87 91 92 93 93 95 94 92 96 94 87 89 94 91 88 79 78 73 69 69 71 73 73 72 69 81 84 72 86 76 80 72 86 79 75 74 70 63 64 70 72
93 90 86 87 90 93 96 94 98 98 89 84 88 92 87 84 86 86 88 87 86 76 80 77 78 86 81 80 81 82 78 82 90 87 77 76 73 71 68 70 68 72 72
90 83 80 82 87 89 88 85 88 92 93 92 90 88 89 88 88 89 89 90 87 87 83 84 80 87 85 83 84 86 76 83 89 87 84 71 75 70 69 72 68 71 74
84 75 75 76 88 88 90 84 84 94 93 91 89 89 90 90 92 92 91 90 90 88 88 83 85 89 89 82 82 82 72 80 81 84 89 70 71 75 74 72 70 74 77
83 71 74 75 82 83 88 86 84 94 86 90 86 86 86 94 92 92 91 84 90 90 90 89 86 90 88 86 82 82 81 80 79 78 81 86 75 77 77 73 73 76 73
81 75 67 70 73 82 88 88 85 84 78 84 83 82 86 92 92 90 90 88 89 88 87 88 91 86 88 76 82 84 79 77 77 76 77 83 81 76 75 76 76 76 72
75 76 74 59 67 76 81 89 86 85 88 86 84 84 83 87 88 90 89 87 88 90 92 94 84 82 90 92 85 86 82 82 79 81 82 78 86 66 76 80 81 79 75
72 74 74 71 68 74 87 91 92 88 88 87 87 85 83 84 83 87 85 87 88 90 92 85 85 76 85 88 73 77 87 82 79 74 76 78 79 75 80 83 84 83 74
66 72 73 71 73 83 92 93 94 88 88 93 87 87 84 80 81 85 82 88 87 83 84 83 86 83 87 82 62 71 81 83 81 80 77 69 77 78 83 79 88 78 82
64 69 70 72 77 90 93 92 90 88 86 86 86 81 82 80 79 87 91 92 85 85 84 80 85 85 81 83 77 76 71 72 80 80 81 83 81 79 80 84 89 84 75
70 72 75 78 84 88 90 88 82 84 87 83 85 84 83 80 82 89 89 87 85 83 84 84 87 85 84 84 80 80 84 84 70 76 82 78 78 78 77 77 83 82 79
74 77 76 81 83 86 90 89 90 90 90 92 90 86 83 83 81 87 86 88 87 88 88 87 87 86 90 87 88 86 81 84 80 89 77 79 76 82 81 81 83 79 84
71 70 76 82 83 84 92 90 88 85 90 92 85 89 83 82 80 82 85 87 88 87 90 86 83 87 93 88 92 91 87 89 88 92 87 84 81 70 78 86 80 84 86
68 66 72 80 85 84 91 89 88 90 93 93 93 88 84 81 82 81 85 86 89 86 88 88 88 92 95 92 83 84 90 94 90 90 74 80 85 78 88 81 83 83 84
71 76 74 83 86 86 88 90 90 90 91 94 90 90 90 88 82 87 86 88 88 91 89 90 92 89 92 91 94 87 92 92 78 79 78 79 79 86 88 93 86 91 91